Regional Weather Roundup
Issued by NWS Spokane, WA

Home | Current Version | Previous Version | Text Only | Print | Product List | Glossary On
Versions: 1 2 3 4 5 6 7 8 9 10 11 12 13 14 15 16 17 18 19 20 21 22 23 24 25 26 27 28 29 30 31 32 33 34 35 36 37 38 39 40 41 42 43 44 45 46 47 48 49 50
000
NZUS01 KOTX 241800
RWROTX

Eastern Washington/Northern Idaho Roundup
National Weather Service, Spokane WA
1000 AM PST SAT FEB 24 2018

Note: "fair" indicated few or no clouds below 12,000 feet with no
significant weather and/or obstructions to visibility.

...Northeast Washington and Northern Idaho Panhandle...

CITY           SKY/WX    TMP DP  RH WIND       PRES   REMARKS
Spokane Intl   LGT SNOW  25  23  92 NE9       29.83R FOG     WCI  15
Spokane Downto FLURRIES  27  24  89 CALM      29.86R
Coeur d Alene  SNOW      26  22  84 N10       29.85S VSB 1/2 WCI  16
Deer Park      CLOUDY    25  20  81 NE12      29.86R WCI  14
Sandpoint        N/A     25  21  86 NE10      29.88S WCI  15

...Southeast Washington and southern Idaho Panhandle...

CITY           SKY/WX    TMP DP  RH WIND       PRES   REMARKS
Walla Walla    CLOUDY    38  32  79 SW17      29.88R
Pullman/Moscow SNOW      26  26 100 E8        29.82S VSB 1/4 WCI  18
Lowell           N/A     28  25  88 CALM      29.94F
Grangeville    CLOUDY    28  21  74 S21G36    29.79S WCI  15

...Columbia Basin...

CITY           SKY/WX    TMP DP  RH WIND       PRES   REMARKS
Ephrata        MOSUNNY   30  23  75 N18       29.89R WCI  18
Moses Lake     MOSUNNY   33  26  75 N17       29.90R WCI  22
Pasco          PTSUNNY   41  33  73 W12       29.92R
Hermiston      PTSUNNY   40  32  73 W21G33    29.92R
Pendleton      CLOUDY    37  30  75 W26G40    29.88R

...East Slopes Cascades...

CITY           SKY/WX    TMP DP  RH WIND       PRES   REMARKS
The Dalles     MOSUNNY   41  32  70 NW10      30.03R
Yakima         SUNNY     34  23  64 CALM      29.91R
Ellensburg     MOSUNNY   34  25  69 NW7       29.86R WCI  28
Wenatchee      MOSUNNY   26  21  81 NW3       29.93R
Omak           CLOUDY    27  24  89 N8        29.94R WCI  19
Sunnyside      PTCLDY    37  26  64 SW8       29.91R

...Southern British Columbia...

CITY           SKY/WX    TMP DP  RH WIND       PRES   REMARKS

...Western Montana...

CITY           SKY/WX    TMP DP  RH WIND       PRES   REMARKS
Kalispell      LGT SNOW  22  17  81 CALM      29.84F VSB 1
Missoula       CLOUDY    20  13  74 NW5       29.83F WCI  13

...Neighboring Cities...

CITY           SKY/WX    TMP DP  RH WIND       PRES   REMARKS
Seattle        PTSUNNY   40  34  79 N7        30.05R
Portland       MOSUNNY   43  34  70 W12       30.13R
Boise          SNOW      27  24  89 SE17G23   29.97F VSB 1/2 WCI  14
Great Falls    PTSUNNY   23  12  62 SW20      29.69S WCI   8



USA.gov is the U.S. government's official web portal to all federal, state and local government web resources and services.